Location: Arbon
(43.0005°N, 0.7472°E)
Time: 01:51:04
(UTC+00:00)

ERBS - Pass Details

Date: 07 August 2020
Orbit: 412 x 421 km, 57.0° (Epoch: 19 September)

Event Time Altitude Azimuth Distance (km) Brightness Sun altitude
Rises 02:58:40 0° 310° (NW) 2,351 6.0 -18.3°
Reaches altitude 10° 03:00:46 10° 307° (NW) 1,485 4.9 -18.0°
Maximum altitude 03:04:02 58° 227° (SW) 484 2.2 -17.6°
Drops below altitude 10° 03:07:16 10° 147° (SSE) 1,477 4.9 -17.2°
Sets 03:09:22 0° 144° (SE) 2,336 6.0 -16.9°
